{"data":{"norad_id":48112,"intl_designator":"2021-027W","name":"STARLINK-2449","alt_names":[],"object_type":"PAYLOAD","status":"ACTIVE","operator":null,"country":"US","launch_date":"2021-04-07","launch_site_code":"AFETR","launch_vehicle":null,"mission":null,"orbit_class":"UNKNOWN","rcs_meters":null,"size_class":null,"mass_kg":null,"dimensions":null,"purposes":["comms"],"wikipedia_slug":null,"has_3d_model":false,"image_url":null,"decayed_at":null,"tle_current":{"epoch":"2026-09-19T18:56:38.012640Z","epoch_age_seconds":91347,"freshness":"FRESH","line1":"1 48112U 21027W   26262.78932885  .00001769  00000+0  68718-4 0  9992","line2":"2 48112  53.1613 344.4759 0001140  89.3899 270.7233 15.31714159302225","mean_motion":15.31714159,"eccentricity":0.000114,"inclination_deg":53.1613,"raan_deg":344.4759,"arg_perigee_deg":89.3899,"mean_anomaly_deg":270.7233,"bstar":6.8718e-5,"rev_number":30222,"period_min":94.012318913349,"perigee_km":469.91702114269,"apogee_km":471.47855547442,"semimajor_km":6848.8347883086,"source":"CELESTRAK","updated_at":"2026-09-20T09:00:38.763982Z"}}}